Location: Beadle
(51.4667°N, 109.0000°W)
Time: 04:34:38
(UTC+00:00)

Altair - Pass Details

Date: 03 June 2022
Orbit: 1501 x 1682 km, 47.2° (Epoch: 30 June)

Event Time Altitude Azimuth Distance (km) Brightness Sun altitude
Rises 21:21:16 0° 223° (SW) 4,769 10.7 52.0°
Reaches altitude 10° 21:24:28 10° 217° (SW) 3,811 10.4 51.6°
Maximum altitude 21:33:33 46° 149° (SSE) 2,110 8.9 50.4°
Drops below altitude 10° 21:42:54 10° 81° (E) 3,933 9.4 49.2°
Sets 21:46:15 0° 75° (ENE) 4,933 9.8 48.8°
